Temperature
18 16 16 17 17 19 19 19 19 19 20 20 20 19 19 19 19 19 19 19 19 20 20 20 20 20 20 20 19 19 19 19 18 18 18 18 17 17 17 17 17 17 16 16
17 17 18 18 18 19 19 19 18 19 20 21 19 19 19 19 18 19 19 19 19 19 20 19 19 20 20 20 19 19 19 19 18 18 18 18 17 17 17 17 16 16 16 16
18 18 19 19 19 19 19 18 19 19 20 20 20 19 19 19 19 19 19 19 19 19 19 19 19 19 19 19 19 19 18 18 18 18 17 17 17 17 17 16 16 16 16 16
17 18 19 19 19 19 18 19 19 20 19 17 19 18 18 18 18 18 18 19 19 19 19 19 19 19 19 19 19 18 18 18 18 18 17 17 17 17 17 17 16 16 16 16
18 19 19 19 19 19 19 20 19 19 18 18 18 18 17 17 18 18 18 18 18 19 19 19 19 19 19 19 19 18 18 18 18 17 17 17 17 17 17 16 16 16 16 15
19 19 19 20 20 20 20 19 18 16 16 17 18 17 17 16 17 18 17 18 18 18 18 18 18 18 18 18 18 18 18 18 17 17 17 17 17 16 16 16 16 16 16 15
19 19 19 20 20 20 19 17 17 17 16 16 17 17 16 17 17 17 17 18 18 18 18 17 17 18 18 18 18 18 18 17 17 17 16 16 16 16 16 16 16 16 16 15
17 18 19 19 19 18 18 17 16 17 17 16 17 17 17 17 17 18 18 18 17 17 18 18 17 18 18 18 18 18 17 17 17 16 16 16 16 16 16 16 16 15 15 15
17 17 19 19 19 19 17 16 17 16 16 16 16 16 17 17 17 17 17 17 17 17 17 17 17 17 17 17 17 17 17 17 16 16 16 15 15 15 15 15 15 15 15 15
17 17 18 19 19 18 18 16 14 15 16 16 17 17 16 17 16 16 16 16 16 16 17 17 17 17 17 17 17 17 17 17 16 16 15 15 15 15 15 15 15 15 15 15
17 17 18 18 18 18 17 16 15 14 15 15 16 16 17 16 16 15 15 16 16 16 16 17 17 17 17 17 17 17 16 16 16 15 15 15 15 15 15 15 14 14 14 14
15 15 15 17 17 18 17 16 15 16 15 14 15 16 17 15 15 15 15 16 16 16 16 16 17 17 17 16 16 16 16 16 15 15 15 15 14 14 14 14 14 14 14 14
16 14 15 16 17 17 17 16 15 14 13 13 15 16 16 15 15 15 15 15 16 16 16 16 16 17 17 16 16 16 15 15 15 15 15 14 14 14 14 14 14 14 14 14
15 14 15 16 16 16 16 16 15 14 14 14 14 16 16 14 14 14 15 15 15 16 16 16 16 16 16 16 16 16 15 15 15 14 14 14 14 14 14 14 14 14 14 14
14 14 14 15 16 16 16 16 16 15 15 15 15 15 15 14 14 14 14 15 15 15 15 15 16 15 16 15 15 15 15 15 14 14 14 14 14 14 14 13 13 13 13 13
12 13 14 15 16 16 16 16 16 16 15 15 15 15 14 14 14 14 14 14 14 14 15 15 15 15 15 15 15 15 15 14 14 14 14 14 14 14 13 13 13 13 13 13
11 12 13 13 15 16 15 15 15 15 15 15 15 14 13 13 13 13 13 14 14 14 14 15 15 15 15 15 15 15 15 14 14 14 14 14 13 13 13 13 13 13 13 13
11 11 11 12 14 14 14 14 15 14 14 13 13 13 13 13 13 13 14 14 14 14 14 14 14 15 15 15 15 14 14 14 14 14 14 13 13 13 13 13 13 13 13 12
10 11 11 11 12 13 14 14 13 13 13 12 12 12 12 13 13 13 14 14 14 14 14 14 14 14 15 14 14 14 14 14 14 14 14 13 13 13 13 13 13 13 12 12
10 10 11 11 13 13 13 13 13 14 13 12 12 11 12 12 12 12 13 13 13 14 14 14 14 14 14 14 14 14 13 13 13 13 13 13 13 13 13 13 12 12 12 12
11 10 10 11 12 12 12 13 13 13 13 12 12 12 12 11 12 13 13 13 13 13 13 14 13 13 13 13 13 13 13 13 13 13 13 13 13 13 13 12 12 12 12 12
10 10 10 10 11 11 12 12 12 11 12 12 12 12 12 12 12 12 13 13 13 13 13 13 13 13 13 13 13 13 13 13 13 13 13 13 12 12 12 12 12 12 12 12
9 9 9 9 10 10 11 11 12 12 12 12 12 12 12 12 12 12 12 12 12 13 13 13 13 13 13 12 12 12 12 12 12 12 12 12 12 12 12 12 12 11 11 11
9 9 8 9 9 10 11 11 11 12 12 12 12 12 12 12 12 12 12 12 12 12 12 12 12 12 12 12 12 12 12 12 12 12 12 12 12 12 12 11 11 11 11 11
8 8 8 9 9 10 11 11 11 11 11 12 12 12 12 12 12 12 12 12 12 12 12 12 12 12 12 12 12 12 12 12 12 12 11 11 12 11 11 11 11 11 11 11
7 8 8 8 9 8 9 11 11 11 11 11 11 11 12 12 12 12 12 12 11 11 12 11 11 11 11 11 11 11 11 12 12 11 11 11 11 11 11 11 11 11 11 11
Wind_Speed
4 4 5 9 9 7 4 4 6 8 5 2 6 7 6 3 3 4 4 4 4 5 3 4 5 5 6 6 7 7 7 6 6 5 4 4 3 3 2 2 4 4 5 5
3 6 10 6 6 5 5 4 6 7 3 3 4 5 4 3 5 6 6 6 6 4 3 4 5 5 6 6 7 7 7 7 7 5 4 3 3 2 2 2 2 4 4 5
9 7 5 5 4 5 5 6 6 6 5 2 1 4 3 2 1 2 3 5 4 6 6 5 5 5 5 5 5 6 6 6 6 5 4 3 2 1 1 2 2 2 3 4
7 6 4 5 6 7 7 7 7 5 2 4 0 3 5 3 2 2 3 3 4 4 5 5 6 6 6 6 6 5 6 6 6 6 6 6 5 4 4 3 2 2 2 3
7 5 6 7 9 8 8 5 4 4 3 3 2 3 6 1 3 5 5 5 4 5 6 7 7 7 6 6 6 5 6 5 5 6 7 6 5 4 3 2 3 2 2 2
6 4 6 7 5 7 4 3 3 4 3 2 5 5 6 4 6 5 5 5 5 5 5 5 5 4 4 4 5 5 6 5 5 6 6 6 6 5 4 3 3 2 2 2
4 4 3 3 2 1 4 5 3 3 1 6 2 3 6 6 5 5 6 6 5 5 6 6 6 6 5 6 5 6 6 5 5 5 5 5 5 6 6 4 3 3 2 2
4 6 4 4 6 6 5 8 7 5 5 4 1 5 6 4 3 2 2 2 3 4 5 6 7 7 6 6 6 6 6 5 5 5 4 4 4 4 3 4 3 3 3 3
6 6 4 3 3 8 6 6 6 6 3 1 4 4 6 2 2 2 0 1 3 4 4 5 5 5 5 6 6 7 7 5 5 5 4 4 4 3 3 3 3 2 2 2
6 4 4 3 3 1 5 8 6 5 5 4 4 4 4 4 3 2 1 2 3 3 4 3 4 5 5 5 5 5 5 5 4 5 4 4 3 3 3 3 3 2 2 2
4 5 3 1 3 5 3 4 4 5 4 5 4 6 5 6 5 4 3 3 2 3 4 4 5 5 5 4 5 5 5 4 4 4 3 3 3 3 3 3 3 2 2 2
3 4 3 4 3 3 4 6 6 5 4 4 4 6 4 4 4 3 3 2 1 2 3 4 5 5 5 5 5 5 4 4 4 4 4 3 3 3 2 2 2 2 2 2
3 4 1 3 3 2 2 2 4 5 4 5 5 6 1 2 1 1 1 1 1 1 2 3 4 5 5 5 5 5 4 4 4 5 4 4 3 3 3 3 2 2 2 2
4 3 5 7 6 3 2 1 3 5 4 5 7 7 4 2 1 2 1 1 2 2 2 3 4 4 5 5 5 5 4 4 4 5 4 4 3 3 3 3 2 2 2 2
4 2 3 3 3 2 3 3 4 5 6 7 7 7 7 5 4 3 2 2 3 3 2 2 3 4 4 4 4 4 5 4 5 5 4 4 3 3 2 2 2 2 2 2
3 2 1 1 1 2 3 3 4 4 3 4 3 5 4 1 0 1 1 3 3 2 2 2 3 3 4 5 5 5 4 4 4 5 4 3 2 2 2 2 2 2 1 1
1 3 2 3 2 0 4 4 3 3 2 4 5 5 1 0 1 2 2 3 3 3 2 2 3 3 4 4 5 5 5 4 4 4 3 3 3 3 2 3 2 2 2 1
3 3 2 1 2 5 5 1 2 3 1 1 1 2 2 3 3 1 1 3 2 2 2 2 2 2 2 3 4 4 4 5 4 3 3 3 3 2 2 2 2 1 1 1
5 5 3 3 2 4 3 1 1 2 2 1 1 1 1 1 3 2 2 1 2 2 2 2 2 2 2 4 5 5 5 4 4 3 3 3 3 3 3 3 2 1 1 1
3 3 4 3 2 4 4 3 2 2 2 1 1 1 0 2 2 2 1 1 1 2 2 3 3 3 3 2 4 5 5 4 3 3 3 3 3 4 3 3 2 1 2 2
3 2 3 3 3 5 4 3 1 3 5 2 1 1 1 1 3 2 1 1 1 2 3 4 4 3 2 2 4 4 4 4 4 3 3 3 3 3 3 2 1 1 1 1
2 2 3 3 3 5 4 2 2 3 2 0 1 1 1 1 1 1 1 2 2 3 4 4 3 3 2 2 4 3 2 2 2 3 3 2 2 2 2 2 1 1 2 2
2 3 3 4 5 3 2 1 2 1 0 1 1 1 1 0 1 1 2 2 2 2 3 3 3 3 2 2 3 3 1 1 2 3 3 2 2 1 2 3 2 1 1 2
2 1 1 1 3 3 3 3 3 1 1 1 1 1 1 1 1 1 1 2 2 2 2 3 3 3 2 1 2 2 2 2 3 3 2 2 2 1 1 1 2 2 2 2
3 1 0 1 3 4 4 4 4 3 1 1 2 1 1 2 1 1 2 2 2 2 2 3 3 3 2 1 2 2 2 3 3 3 2 2 2 2 1 1 1 2 2 4
2 2 3 4 4 2 4 5 3 2 2 1 1 2 1 1 2 1 2 2 2 2 2 3 2 3 2 2 2 1 2 3 3 2 2 2 2 2 2 1 0 1 0 1
Wind_Direction
130 113 205 212 197 200 202 218 261 265 267 269 257 268 281 225 207 215 210 200 203 213 202 163 157 151 147 158 161 167 168 164 157 163 169 171 185 185 185 192 181 176 176 174
85 233 226 202 191 201 216 246 268 284 281 242 266 282 279 226 207 208 205 207 209 207 184 160 152 154 157 163 170 171 172 170 174 179 173 171 170 175 180 180 182 182 179 177
189 230 197 171 189 202 225 214 238 259 313 328 291 311 298 287 237 234 220 213 212 204 196 178 167 165 161 168 173 180 176 175 175 164 142 127 112 100 142 171 188 194 187 189
219 243 193 197 213 191 243 228 221 238 269 280 191 277 287 272 286 256 238 219 213 211 189 177 170 172 178 180 171 169 170 170 166 159 162 164 171 182 194 189 186 181 180 189
224 203 186 209 222 188 218 221 209 226 209 265 269 205 278 309 268 260 247 229 212 202 189 185 180 181 180 175 170 166 162 167 164 163 168 167 174 178 165 154 163 178 186 199
234 213 194 210 218 190 185 83 53 56 89 252 236 187 266 242 237 254 250 234 207 193 184 182 173 166 166 164 162 154 161 170 169 167 170 170 174 168 157 160 174 190 201 212
277 268 236 191 186 171 121 102 24 347 354 247 238 188 245 252 250 235 237 236 206 186 174 171 172 175 172 170 170 163 165 171 170 168 174 178 176 172 177 182 186 188 202 218
209 270 237 193 186 194 183 154 167 201 221 262 266 223 248 265 278 253 221 202 176 175 174 178 182 178 176 177 171 163 166 171 167 167 172 174 166 166 176 179 182 193 211 223
190 243 275 226 186 155 155 182 174 151 172 237 265 275 295 311 341 355 67 161 177 177 175 180 178 173 172 173 173 170 168 168 164 162 155 161 167 164 165 163 167 177 206 215
170 230 275 269 89 66 155 150 112 137 163 231 264 253 244 260 268 300 287 232 201 169 169 174 172 171 173 173 165 153 154 161 160 158 161 169 173 173 163 155 161 166 184 189
152 187 290 30 169 187 120 125 127 134 160 168 231 262 221 216 219 218 238 251 214 182 175 179 177 173 168 158 152 149 151 152 150 157 161 160 168 162 151 157 174 170 164 161
152 145 246 261 262 194 166 167 152 160 208 184 184 257 261 206 214 209 232 256 212 202 192 187 174 161 158 165 163 158 161 169 171 163 156 164 167 151 155 174 170 159 167 170
136 130 126 327 326 12 114 138 153 137 132 166 181 252 316 23 358 304 231 228 177 167 175 164 160 157 160 169 170 166 169 176 173 163 160 159 165 167 183 192 177 165 169 168
129 136 176 203 222 204 201 202 160 138 159 196 214 236 280 301 300 319 335 162 147 139 157 159 163 162 159 166 166 162 173 175 167 161 161 166 183 193 198 196 181 179 176 172
94 158 208 225 230 195 198 218 193 189 193 196 222 226 251 239 217 216 198 167 139 134 133 163 164 159 156 153 157 165 172 170 163 157 164 180 193 194 191 189 193 192 187 183
66 149 174 259 244 225 249 252 212 211 205 205 216 250 256 268 139 129 170 164 164 167 169 160 146 157 164 164 167 167 167 164 158 163 173 174 170 180 183 182 185 178 183 179
44 139 147 231 253 346 259 241 210 199 204 182 211 235 222 146 188 190 192 184 181 190 190 181 172 171 176 174 166 167 163 147 149 159 158 164 170 179 183 178 164 167 172 160
161 131 143 163 124 216 243 278 158 164 229 228 249 265 205 218 223 238 175 169 168 187 181 176 166 161 164 153 147 150 139 141 149 154 160 166 166 176 175 162 162 160 146 168
176 153 136 135 189 266 289 276 122 164 267 275 222 280 314 9 60 20 12 100 170 175 161 149 144 135 135 150 149 145 142 146 154 164 171 181 180 177 172 172 177 172 162 189
95 121 127 135 172 232 255 289 292 134 270 277 190 200 221 84 122 264 310 57 84 78 96 97 95 91 109 129 141 141 148 153 172 185 186 183 180 175 176 180 179 171 172 195
58 72 145 166 206 261 282 299 97 152 251 277 202 187 171 174 220 257 308 29 82 87 89 95 101 100 102 114 131 142 153 182 195 178 168 166 168 170 168 154 150 159 160 151
164 159 180 157 186 253 319 51 146 224 267 187 178 196 179 197 307 348 89 88 90 93 93 96 98 84 84 101 119 134 173 205 169 149 150 154 159 167 157 146 155 159 163 167
194 199 187 186 210 258 295 263 284 203 237 257 208 243 205 195 294 94 111 116 110 112 108 103 111 100 85 94 126 140 180 150 134 131 136 144 151 161 157 163 174 183 192 186
311 20 137 259 286 303 323 328 338 342 259 277 260 242 167 202 205 133 133 138 132 122 119 106 109 108 98 102 120 137 136 126 129 134 150 153 150 149 146 172 188 194 209 204
270 310 277 264 291 334 339 327 322 329 346 2 357 330 216 175 165 164 161 154 144 136 127 127 136 140 143 132 125 125 130 124 127 145 152 157 166 166 165 184 208 209 222 214
253 213 202 232 234 216 270 299 323 338 332 323 326 344 360 159 178 169 176 170 151 149 139 136 141 145 153 142 140 149 150 148 140 147 172 175 172 174 175 173 358 0 301 258
Height
1475 1482 1486 1484 1483 1484 1485 1488 1491 1485 1477 1479 1479 1478 1473 1471 1472 1472 1473 1473 1474 1475 1478 1480 1481 1484 1486 1489 1491 1493 1496 1498 1500 1502 1504 1505 1507 1509 1510 1512 1514 1515 1517 1518
1480 1482 1475 1475 1479 1482 1484 1489 1488 1481 1475 1476 1478 1477 1472 1470 1470 1470 1471 1471 1473 1474 1476 1477 1479 1482 1484 1486 1489 1491 1493 1496 1498 1500 1502 1504 1506 1507 1509 1511 1512 1514 1515 1516
1477 1473 1469 1474 1478 1481 1483 1486 1485 1483 1477 1475 1478 1480 1474 1470 1469 1470 1470 1470 1471 1472 1473 1475 1477 1479 1482 1484 1487 1490 1492 1494 1496 1499 1501 1503 1505 1506 1507 1508 1510 1511 1513 1514
1473 1468 1469 1472 1475 1477 1483 1475 1476 1478 1485 1489 1482 1494 1479 1472 1470 1468 1468 1469 1469 1470 1471 1473 1475 1477 1480 1483 1485 1488 1490 1492 1494 1497 1498 1500 1501 1502 1504 1506 1508 1509 1511 1512
1469 1465 1467 1471 1469 1470 1473 1469 1473 1476 1483 1489 1485 1492 1485 1474 1473 1468 1466 1466 1467 1468 1469 1471 1473 1476 1478 1481 1483 1485 1488 1490 1492 1494 1496 1498 1499 1500 1502 1504 1506 1507 1509 1510
1462 1460 1461 1462 1461 1463 1465 1471 1476 1483 1489 1497 1486 1491 1487 1476 1470 1465 1463 1464 1465 1466 1468 1470 1472 1474 1476 1479 1481 1483 1486 1488 1489 1491 1493 1495 1497 1498 1499 1501 1503 1505 1506 1508
1465 1460 1457 1457 1462 1463 1467 1482 1497 1498 1503 1499 1483 1486 1484 1468 1463 1461 1461 1461 1462 1464 1465 1467 1469 1471 1473 1476 1478 1481 1483 1485 1487 1489 1491 1493 1494 1496 1497 1499 1501 1502 1504 1505
1473 1471 1458 1455 1459 1464 1468 1476 1495 1503 1503 1495 1484 1485 1475 1462 1460 1459 1458 1459 1460 1462 1463 1465 1467 1469 1471 1474 1476 1479 1481 1483 1485 1487 1489 1491 1493 1494 1495 1497 1499 1500 1501 1503
1471 1469 1453 1451 1452 1457 1468 1474 1472 1487 1491 1495 1490 1480 1469 1460 1459 1458 1458 1458 1459 1460 1462 1463 1465 1467 1470 1472 1475 1477 1479 1481 1483 1485 1487 1489 1491 1492 1493 1495 1496 1498 1499 1501
1459 1466 1456 1451 1451 1455 1458 1465 1479 1487 1496 1498 1488 1482 1477 1465 1461 1459 1458 1458 1458 1459 1461 1463 1464 1466 1468 1471 1473 1475 1477 1480 1482 1484 1486 1487 1489 1491 1492 1493 1494 1496 1497 1499
1455 1464 1460 1455 1457 1459 1463 1467 1473 1483 1485 1493 1495 1485 1462 1460 1459 1458 1457 1457 1458 1459 1460 1461 1462 1464 1467 1469 1472 1473 1476 1479 1481 1482 1484 1486 1488 1489 1490 1491 1493 1494 1495 1497
1455 1463 1468 1460 1453 1451 1454 1460 1469 1479 1484 1485 1488 1481 1454 1455 1455 1456 1456 1456 1456 1457 1459 1460 1461 1463 1465 1468 1470 1472 1475 1477 1479 1480 1482 1485 1487 1488 1489 1489 1491 1492 1493 1494
1454 1464 1472 1468 1463 1457 1456 1458 1462 1469 1478 1485 1486 1476 1454 1454 1454 1454 1454 1455 1455 1456 1457 1459 1460 1461 1463 1466 1469 1471 1473 1475 1477 1479 1481 1483 1485 1486 1487 1488 1489 1490 1491 1492
1450 1461 1466 1470 1464 1459 1458 1458 1460 1466 1477 1479 1475 1466 1457 1456 1455 1454 1453 1453 1454 1455 1456 1457 1459 1460 1462 1464 1466 1468 1471 1474 1476 1477 1479 1480 1482 1484 1485 1486 1487 1488 1489 1490
1451 1460 1459 1457 1454 1454 1455 1456 1457 1461 1463 1468 1464 1462 1456 1454 1453 1453 1452 1453 1453 1454 1455 1456 1458 1459 1461 1463 1465 1467 1470 1472 1474 1475 1477 1479 1480 1482 1483 1484 1485 1486 1487 1488
1454 1459 1458 1457 1453 1453 1454 1453 1454 1456 1456 1458 1458 1458 1451 1451 1451 1452 1452 1451 1452 1453 1454 1455 1457 1459 1460 1462 1464 1466 1468 1470 1472 1474 1475 1477 1478 1480 1481 1482 1483 1484 1485 1486
1457 1460 1463 1463 1456 1455 1460 1454 1453 1453 1453 1454 1457 1454 1451 1451 1450 1450 1450 1451 1451 1452 1453 1455 1456 1457 1459 1461 1463 1464 1467 1469 1471 1472 1474 1476 1477 1478 1479 1480 1481 1482 1483 1484
1458 1461 1466 1465 1462 1468 1458 1449 1448 1451 1452 1451 1451 1450 1449 1448 1448 1449 1449 1450 1450 1451 1452 1454 1455 1456 1458 1460 1462 1465 1466 1468 1470 1471 1473 1474 1476 1477 1478 1479 1479 1480 1481 1482
1452 1459 1465 1469 1467 1462 1455 1450 1450 1452 1453 1451 1450 1449 1449 1448 1449 1450 1450 1450 1451 1451 1452 1453 1454 1456 1457 1460 1462 1464 1466 1467 1469 1470 1471 1473 1474 1475 1476 1477 1478 1478 1479 1480
1452 1455 1462 1467 1466 1466 1456 1448 1447 1450 1454 1450 1449 1449 1449 1449 1452 1452 1450 1450 1451 1452 1452 1453 1455 1456 1458 1460 1462 1464 1465 1466 1468 1469 1470 1472 1473 1474 1474 1475 1476 1477 1478 1479
1457 1460 1462 1465 1465 1461 1452 1448 1446 1457 1456 1449 1448 1449 1449 1450 1451 1450 1449 1450 1450 1451 1453 1454 1455 1456 1458 1460 1461 1463 1464 1466 1467 1468 1470 1471 1472 1473 1473 1474 1475 1475 1476 1476
1459 1462 1463 1465 1466 1463 1451 1449 1451 1452 1448 1448 1448 1448 1448 1448 1449 1448 1448 1449 1450 1452 1453 1454 1455 1456 1458 1459 1461 1462 1464 1465 1466 1467 1468 1469 1470 1471 1472 1473 1473 1474 1474 1474
1458 1458 1458 1459 1460 1453 1450 1450 1449 1448 1448 1448 1448 1448 1448 1447 1448 1448 1448 1449 1450 1452 1452 1454 1455 1456 1458 1459 1461 1461 1463 1464 1465 1466 1467 1468 1469 1470 1471 1472 1472 1472 1472 1472
1455 1454 1455 1455 1453 1451 1450 1449 1448 1448 1448 1448 1448 1447 1447 1447 1447 1447 1448 1449 1450 1451 1452 1453 1454 1456 1457 1458 1460 1461 1462 1463 1464 1465 1466 1468 1468 1469 1470 1470 1471 1471 1471 1470
1456 1455 1455 1455 1452 1450 1449 1448 1448 1447 1447 1447 1447 1447 1447 1446 1447 1447 1448 1449 1450 1451 1452 1453 1454 1455 1456 1458 1459 1460 1461 1462 1463 1464 1465 1466 1467 1468 1468 1469 1469 1469 1469 1469
1455 1455 1455 1453 1451 1451 1450 1448 1447 1446 1445 1446 1446 1445 1445 1446 1446 1447 1447 1448 1449 1450 1451 1452 1454 1455 1456 1457 1458 1460 1461 1462 1462 1462 1464 1465 1465 1466 1467 1467 1467 1467 1468 1468